Regional Weather Roundup
Issued by NWS

Home | Current Version | Previous Version | Text Only | Print | Product List | Glossary On
Versions: 1 2 3 4 5 6 7 8 9 10 11 12 13 14 15 16 17 18 19 20 21 22 23 24 25 26 27 28 29 30 31 32 33 34 35 36 37 38 39 40 41 42 43 44 45 46 47 48 49 50
000
ASUS45 KBOU 141810
RWRCO

WEATHER ROUNDUP FOR COLORADO
NATIONAL WEATHER SERVICE DENVER/BOULDER CO
1100 AM MST THU DEC 14 2017

NOTE: "FAIR" INDICATES FEW OR NO CLOUDS BELOW 12000 FEET WITH NO
SIGNIFICANT WEATHER AND/OR OBSTRUCTIONS TO VISIBILITY.

COZ001>005-013-030-031-141900-
...NORTHWEST COLORADO...

CITY           SKY/WX    TMP DP  RH WIND       PRES   REMARKS
CRAIG          FAIR      27  20  75 SW12      30.33S WCI  17
HAYDEN         FAIR      29  20  69 CALM      30.33S
MEEKER         FAIR      31  20  63 CALM      30.33S
RABBIT EARS PA LGT SNOW  14  12  92 W8        30.21S WCI   3
STEAMBOAT SPGS PTSUNNY   26  20  77 CALM      30.29S
WALDEN         CLOUDY    25  14  63 NW17      30.25S WCI  11
$$

COZ006>008-011-141900-
...WEST CENTRAL VALLEYS...

CITY           SKY/WX    TMP DP  RH WIND       PRES   REMARKS
GRAND JUNCTION FAIR      43  21  41 N9        30.30S
MONTROSE       FAIR      36  21  54 N8        30.30R
EAGLE          PTSUNNY   29  26  89 SW3       30.30S
RIFLE          FAIR      40  19  43 NW12      30.30S
DELTA          FAIR      42  28  58 NE3       30.27S
NUCLA          FAIR      39  21  48 CALM      30.27R
$$

COZ017>023-064>068-141900-
...SOUTHWEST COLORADO...

CITY           SKY/WX    TMP DP  RH WIND       PRES   REMARKS
DURANGO        FAIR      37  23  56 SE14G24   30.13R
CORTEZ         FAIR      47  22  37 N15G21    30.14S
PAGOSA SPRINGS FAIR      35  23  62 CALM      30.14S
TELLURIDE      FAIR      31  21  64 W8        30.20R WCI  24
WOLF CREEK PAS FOG       16  16 100 N10G18    30.20R VSB 1/2 WCI   3
$$

COZ009-010-012-014-032>034-037-058>063-141900-
...CENTRAL COLORADO...

CITY           SKY/WX    TMP DP  RH WIND       PRES   REMARKS
ASPEN          PTSUNNY   30  23  75 N6        30.23R WCI  24
BUENA VISTA    FAIR      28  22  76 SE7       30.19F WCI  21
COPPER MTN     NOT AVBL
BERTHOUD PASS  CLOUDY     5  -6  61 NW25G33   30.12S WCI -18
COTTONWOOD PAS FAIR      28  27  93 CALM      30.16F
GUNNISON       FAIR      33  24  69 VRB7      30.19F WCI  27
KREMMLING      CLOUDY    34  21  60 W5        30.28R WCI  30
LEADVILLE      PTSUNNY   23  12  62 N9        30.17S WCI  13
MONARCH PASS     N/A     16  14  93 W3        30.26S
SALIDA         FAIR      32  21  65 E5        30.27F WCI  27
SUNLIGHT       PTSUNNY  N/A N/A N/A N3        30.27S
WILKERSON PASS CLOUDY   N/A N/A N/A W6        30.15R FOG
$$

COZ069>075-141900-
...SAN LUIS VALLEY/SANGRE DE CRISTO MOUNTAINS...

CITY           SKY/WX    TMP DP  RH WIND       PRES   REMARKS
ALAMOSA        CLOUDY    29  22  75 E5        30.17S WCI  24
DEL NORTE      CLOUDY    28  24  84 SE3       30.19S
LA VETA PASS   LGT SNOW  19  16  86 N7          N/A  WCI  10
SAGUACHE       FAIR      34  21  60 W3        30.17S
$$

COZ035-036-038>040-141900-
...NORTHERN COLORADO FRONT RANGE...

CITY           SKY/WX    TMP DP  RH WIND       PRES   REMARKS
DENVER INTL AP PTSUNNY   35  24  64 W10       30.21S WCI  27
DMNS CITY PARK NOT AVBL
AURORA         NOT AVBL
FRONT RANGE AP NOT AVBL
ERIE MUNI ARPT CLOUDY    35  29  80 CALM      30.29S
BOULDER MUN AP CLOUDY    36  27  69 NE9       30.23S
CENTENNIAL     PTSUNNY   33  22  63 CALM      30.22R
BROOMFIELD     PTSUNNY   36  21  55 CALM      30.23R
FORT COLLINS   CLOUDY    36  22  56 N22G29    30.22F
LONGMONT       FAIR      42  29  60 CALM      30.25S
$$

COZ041-046-047-076>085-087-088-141900-
...PIKES PEAK/PALMER DIVIDE AND SOUTHERN FOOTHILLS...

CITY           SKY/WX    TMP DP  RH WIND       PRES   REMARKS
COLO. SPRINGS  CLOUDY    35  22  58 CALM      30.22S
A. F. ACADEMY  NOT AVBL
SCHRIEVER AFB  NOT AVBL
CHEYENNE MTN   NOT AVBL
ELLICOTT         N/A    N/A N/A N/A N9        30.20F
FALCON         CLOUDY    31  20  63 N8        30.21F WCI  23
FORT CARSON    NOT AVBL
LIMON          CLOUDY    33  27  78 NW16      30.19F WCI  23
MONUMENT HILL  CLOUDY    28  21  74 N6        30.21F WCI  22
CANON CITY     PTSUNNY   34  30  86 CALM      30.23F
WALSENBURG     CLOUDY    34  28  80 CALM      30.24F
TRINIDAD       LGT SNOW  32  28  85 NW7       30.24F FOG     WCI  26
$$

COZ042>045-048>051-090-091-141900-
...NORTHEAST COLORADO...

CITY           SKY/WX    TMP DP  RH WIND       PRES   REMARKS
GREELEY ARPT   LGT RAIN  36  26  67 N16       30.24R
AKRON          CLOUDY    33  27  78 NW20G30   30.18F WCI  21
BURLINGTON     CLOUDY    40  24  53 NW17G33   30.17F
WRAY           PTSUNNY   43  25  49 N17G29    30.17S
YUMA           CLOUDY    36  28  75 NW25G33   30.18S
STERLING       PTSUNNY   41  23  48 N26G37    30.19S
HOLYOKE        MIX PCPN  43  25  49 NW28G35   30.17R
FORT MORGAN    CLOUDY    34  25  70 NW23G35   30.23F WCI  22
$$

COZ086-089-092>099-141900-
...SOUTHEAST COLORADO...

CITY           SKY/WX    TMP DP  RH WIND       PRES   REMARKS
PUEBLO         CLOUDY    38  30  73 W8        30.24F
LA JUNTA       CLOUDY    39  31  72 W14       30.24F
LAMAR          CLOUDY    42  30  62 NW15      30.21S
SPRINGFIELD      N/A     36  31  82 NW16      30.20F
$$



USA.gov is the U.S. government's official web portal to all federal, state and local government web resources and services.